AB5KT-1 Weather Reports


Display with metric or nautical units.
time (UTC)temp
F
wind
direction
speed
MPH
gust
MPH
rain 1hr
in
rain 24hr
in
rain mn
in
humidity
%
barometer
mb
20260904151904 83 134 2.0 5.0 0.00 0.00 0.00 75 1015.4
20260904151404 84 192 2.0 9.0 0.00 0.00 0.00 75 1015.4
20260904150905 84 126 2.0 9.0 0.00 0.00 0.00 75 1015.2
20260904150404 84 126 2.0 7.0 0.00 0.00 0.00 76 1015.2
20260904145902 83 130 3.0 7.0 0.00 0.00 0.00 77 1015.2
20260904145407 82 130 2.0 8.0 0.00 0.00 0.00 78 1015.2
20260904145403 83 147 3.0 8.0 0.00 0.00 0.00 77 1015.2
20260904144400 82 130 2.0 7.0 0.00 0.00 0.00 78 1015.2
20260904143905 82 216 2.0 7.0 0.00 0.00 0.00 79 1015.1
20260904143900 83 159 2.0 7.0 0.00 0.00 0.00 78 1015.2
20260904143504 82 192 2.0 7.0 0.00 0.00 0.00 80 1015.1
20260904142400 81 103 2.0 7.0 0.00 0.00 0.00 82 1015.4
20260904141858 80 109 2.0 7.0 0.00 0.00 0.00 82 1015.4
20260904141359 80 163 2.0 7.0 0.00 0.00 0.00 82 1015.4
20260904140859 80 111 2.0 6.0 0.00 0.00 0.00 82 1015.2
20260904140358 80 109 2.0 6.0 0.00 0.00 0.00 82 1015.2
20260904135857 80 82 2.0 6.0 0.00 0.00 0.00 83 1015.2
20260904135356 80 90 2.0 7.0 0.00 0.00 0.00 83 1015.1
20260904134856 80 118 2.0 7.0 0.00 0.00 0.00 83 1015.1
20260904134357 79 125 1.0 5.0 0.00 0.00 0.00 84 1015.1
20260904133901 79 122 1.0 6.0 0.00 0.00 0.00 84 1015.0
20260904133856 79 121 1.0 5.0 0.00 0.00 0.00 84 1015.0
20260904132856 79 123 2.0 9.0 0.00 0.00 0.00 84 1014.8
20260904132356 79 104 2.0 9.0 0.00 0.00 0.00 84 1014.8
20260904131856 79 128 2.0 6.0 0.00 0.00 0.00 84 1014.9
20260904131354 79 119 2.0 6.0 0.00 0.00 0.00 84 1014.8
20260904130852 79 115 2.0 6.0 0.00 0.00 0.00 84 1014.7
20260904130353 79 142 2.0 7.0 0.00 0.00 0.00 84 1014.6
20260904125854 79 115 2.0 7.0 0.00 0.00 0.00 84 1014.6
20260904125355 79 123 1.0 5.0 0.00 0.00 0.00 84 1014.6
20260904125351 79 131 1.0 5.0 0.00 0.00 0.00 84 1014.5
20260904124350 79 111 2.0 5.0 0.00 0.00 0.00 84 1014.5
20260904123850 79 124 2.0 6.0 0.00 0.00 0.00 84 1014.4
20260904123350 79 128 2.0 6.0 0.00 0.00 0.00 84 1014.3
20260904122850 79 128 1.0 6.0 0.00 0.00 0.00 84 1014.4
20260904122350 78 148 2.0 6.0 0.00 0.00 0.00 84 1014.3
20260904121850 78 115 2.0 6.0 0.00 0.00 0.00 84 1014.2
20260904121351 78 111 1.0 5.0 0.00 0.00 0.00 84 1014.3
20260904120850 78 95 2.0 6.0 0.00 0.00 0.00 84 1014.3
20260904120351 78 115 2.0 6.0 0.00 0.00 0.00 84 1014.1
20260904115848 79 103 1.0 5.0 0.00 0.00 0.00 84 1014.0
20260904115349 79 119 1.0 5.0 0.00 0.00 0.00 84 1014.0
20260904114848 79 117 2.0 5.0 0.00 0.00 0.00 84 1013.9
20260904114348 79 61 1.0 5.0 0.00 0.00 0.00 84 1014.0
20260904113848 79 113 1.0 5.0 0.00 0.00 0.00 84 1014.1
20260904113346 79 150 0.0 4.0 0.00 0.00 0.00 84 1014.0
20260904112847 79 115 0.0 2.0 0.00 0.00 0.00 84 1013.9
20260904112348 78 122 1.0 4.0 0.00 0.00 0.00 84 1013.6
20260904112344 78 115 0.0 2.0 0.00 0.00 0.00 84 1013.8
20260904111345 78 122 0.0 4.0 0.00 0.00 0.00 84 1013.6
20260904110844 78 125 0.0 4.0 0.00 0.00 0.00 84 1013.5
20260904110344 78 201 0.0 4.0 0.00 0.00 0.00 84 1013.6
20260904110340 79 120 0.0 2.0 0.00 0.00 0.00 83 1013.5
20260904105944 78 182 0.0 2.0 0.00 0.00 0.00 83 1013.6
20260904104836 79 120 0.0 2.0 0.00 0.00 0.00 83 1013.6
20260904104338 79 124 0.0 2.0 0.00 0.00 0.00 83 1013.6
20260904104334 79 120 0.0 2.0 0.00 0.00 0.00 83 1013.6
20260904103337 79 158 1.0 4.0 0.00 0.00 0.00 83 1013.5
20260904103332 79 158 0.0 3.0 0.00 0.00 0.00 83 1013.5
20260904102338 79 132 1.0 5.0 0.00 0.00 0.00 82 1013.5
20260904102333 79 82 1.0 4.0 0.00 0.00 0.00 82 1013.5
20260904101832 79 148 1.0 4.0 0.00 0.00 0.00 82 1013.6
20260904101437 79 165 1.0 5.0 0.00 0.00 0.00 82 1013.6
20260904100333 79 133 1.0 6.0 0.00 0.00 0.00 82 1013.5
20260904095834 79 155 1.0 6.0 0.00 0.00 0.00 82 1013.6
20260904095332 79 117 1.0 5.0 0.00 0.00 0.00 82 1013.6
20260904094833 79 161 1.0 5.0 0.00 0.00 0.00 82 1013.6
20260904094335 79 156 2.0 5.0 0.00 0.00 0.00 81 1013.5
20260904093832 80 155 2.0 8.0 0.00 0.00 0.00 81 1013.5
20260904093332 80 146 2.0 9.0 0.00 0.00 0.00 81 1013.5
20260904092837 80 134 3.0 9.0 0.00 0.00 0.00 81 1013.5
20260904092833 80 130 3.0 9.0 0.00 0.00 0.00 81 1013.5
20260904092437 80 151 3.0 9.0 0.00 0.00 0.00 80 1013.4
20260904091333 80 94 3.0 8.0 0.00 0.00 0.00 80 1013.4
20260904090832 80 191 3.0 8.0 0.00 0.00 0.00 80 1013.5
20260904090332 80 156 2.0 8.0 0.00 0.00 0.00 80 1013.5
20260904085833 80 157 2.0 9.0 0.00 0.00 0.00 80 1013.6
20260904085332 80 151 2.0 9.0 0.00 0.00 0.00 80 1013.5
20260904084832 80 121 2.0 7.0 0.00 0.00 0.00 80 1013.4
20260904084333 80 223 2.0 7.0 0.00 0.00 0.00 80 1013.5
20260904083832 80 125 2.0 7.0 0.00 0.00 0.00 80 1013.5
20260904083332 80 121 2.0 7.0 0.00 0.00 0.00 80 1013.5
20260904082837 80 128 1.0 5.0 0.00 0.00 0.00 80 1013.6
20260904082833 80 161 2.0 7.0 0.00 0.00 0.00 80 1013.5
20260904081832 80 161 1.0 4.0 0.00 0.00 0.00 80 1013.6
20260904081336 80 42 2.0 8.0 0.00 0.00 0.00 80 1013.7
20260904081332 80 200 2.0 8.0 0.00 0.00 0.00 80 1013.6
20260904080332 80 235 2.0 8.0 0.00 0.00 0.00 79 1013.7
20260904075837 80 133 2.0 6.0 0.00 0.00 0.00 79 1013.7
20260904075833 80 116 2.0 8.0 0.00 0.00 0.00 79 1013.6
20260904074832 80 144 2.0 5.0 0.00 0.00 0.00 79 1013.7
20260904074333 80 173 1.0 5.0 0.00 0.00 0.00 79 1013.8
20260904073832 80 128 1.0 4.0 0.00 0.00 0.00 79 1013.9
20260904073333 80 126 1.0 5.0 0.00 0.00 0.00 79 1014.0
20260904072833 80 126 1.0 6.0 0.00 0.00 0.00 79 1014.0
20260904072336 80 125 1.0 6.0 0.00 0.00 0.00 79 1014.1
20260904072332 80 121 1.0 6.0 0.00 0.00 0.00 79 1014.0
20260904071333 80 132 1.0 4.0 0.00 0.00 0.00 79 1014.1
20260904070831 80 128 1.0 6.0 0.00 0.00 0.00 78 1014.1
20260904070331 80 161 1.0 6.0 0.00 0.00 0.00 78 1014.1
20260904065831 80 124 1.0 6.0 0.00 0.00 0.00 78 1014.1
20260904065334 80 112 2.0 5.0 0.00 0.00 0.00 78 1014.0
20260904065330 80 107 2.0 6.0 0.00 0.00 0.00 78 1014.0
20260904064935 80 122 2.0 7.0 0.00 0.00 0.00 78 1014.0
20260904063831 80 162 2.0 8.0 0.00 0.00 0.00 78 1014.1
20260904063330 80 125 2.0 8.0 0.00 0.00 0.00 77 1014.1
20260904062829 81 146 1.0 7.0 0.00 0.00 0.00 77 1014.2
20260904062329 81 156 2.0 6.0 0.00 0.00 0.00 77 1014.1
20260904061828 81 128 2.0 7.0 0.00 0.00 0.00 77 1014.1
20260904061328 81 180 2.0 7.0 0.00 0.00 0.00 77 1014.1
20260904060833 81 143 2.0 9.0 0.00 0.00 0.00 76 1014.2
20260904060829 81 160 3.0 7.0 0.00 0.00 0.00 76 1014.1
20260904060433 81 125 2.0 9.0 0.00 0.00 0.00 76 1014.3
20260904055332 81 146 4.0 9.0 0.00 0.00 0.00 76 1014.3
20260904055328 81 132 3.0 9.0 0.00 0.00 0.00 76 1014.3
20260904054328 81 148 2.0 9.0 0.00 0.00 0.00 76 1014.3
20260904053834 81 131 3.0 10.0 0.00 0.00 0.00 75 1014.2
20260904053829 81 96 1.0 7.0 0.00 0.00 0.00 76 1014.3
20260904052829 81 182 4.0 10.0 0.00 0.00 0.00 75 1014.2
20260904052330 82 114 2.0 8.0 0.00 0.00 0.00 75 1014.0
20260904052326 82 119 3.0 9.0 0.00 0.00 0.00 75 1014.1
20260904051326 82 119 4.0 12.0 0.00 0.00 0.00 74 1014.0
20260904050831 82 129 4.0 11.0 0.00 0.00 0.00 74 1014.0
20260904050827 82 119 5.0 12.0 0.00 0.00 0.00 74 1014.1
20260904045826 82 121 4.0 12.0 0.00 0.00 0.00 74 1014.0
20260904045326 82 134 4.0 12.0 0.00 0.00 0.00 74 1013.8
20260904044826 82 109 5.0 12.0 0.00 0.00 0.00 73 1013.7
20260904044325 83 93 5.0 12.0 0.00 0.00 0.00 73 1013.7
20260904043830 83 121 4.0 10.0 0.00 0.00 0.00 72 1013.5
20260904043826 83 96 4.0 9.0 0.00 0.00 0.00 73 1013.7
20260904042824 83 142 4.0 10.0 0.00 0.00 0.00 72 1013.5
20260904042324 83 119 4.0 12.0 0.00 0.00 0.00 71 1013.5
20260904041824 84 96 4.0 12.0 0.00 0.00 0.00 70 1013.5
20260904041324 84 202 4.0 10.0 0.00 0.00 0.00 69 1013.6
20260904040827 84 137 4.0 12.0 0.00 0.00 0.00 68 1013.6
20260904040823 84 119 4.0 12.0 0.00 0.00 0.00 69 1013.6
20260904040428 84 122 4.0 10.0 0.00 0.00 0.00 66 1013.6
20260904035323 85 132 4.0 11.0 0.00 0.00 0.00 66 1013.5
20260904034824 85 121 4.0 11.0 0.00 0.00 0.00 65 1013.6
20260904034324 85 110 4.0 11.0 0.00 0.00 0.00 64 1013.5
20260904033822 85 95 4.0 11.0 0.00 0.00 0.00 63 1013.4
20260904033322 86 132 4.0 11.0 0.00 0.00 0.00 61 1013.3
20260904032822 86 136 3.0 10.0 0.00 0.00 0.00 61 1013.4
20260904032322 86 107 3.0 8.0 0.00 0.00 0.00 59 1013.3
20260904031826 87 127 6.0 15.0 0.00 0.00 0.00 57 1013.3
20260904031822 86 148 5.0 12.0 0.00 0.00 0.00 58 1013.3
20260904030822 87 72 6.0 15.0 0.00 0.00 0.00 56 1013.1
20260904030321 87 248 5.0 10.0 0.00 0.00 0.00 56 1013.1
20260904025820 87 99 5.0 12.0 0.00 0.00 0.00 55 1013.0
20260904025320 87 115 6.0 13.0 0.00 0.00 0.00 55 1013.0
20260904024820 87 135 6.0 13.0 0.00 0.00 0.00 54 1012.8
20260904024320 88 119 5.0 18.0 0.00 0.00 0.00 55 1012.6
20260904023824 88 86 3.0 10.0 0.00 0.00 0.00 57 1012.4
20260904023820 88 64 4.0 18.0 0.00 0.00 0.00 55 1012.5
20260904023424 88 69 4.0 11.0 0.00 0.00 0.00 57 1012.3
20260904022324 88 107 2.0 9.0 0.00 0.00 0.00 58 1012.0
20260904022320 88 114 4.0 11.0 0.00 0.00 0.00 58 1012.1
20260904021320 88 113 2.0 9.0 0.00 0.00 0.00 58 1011.8
20260904020817 88 88 3.0 9.0 0.00 0.00 0.00 58 1011.8
20260904020318 88 140 4.0 9.0 0.00 0.00 0.00 57 1011.7
20260904015818 88 109 3.0 11.0 0.00 0.00 0.00 57 1011.5
20260904015318 88 117 4.0 11.0 0.00 0.00 0.00 57 1011.6
20260904014823 89 184 5.0 14.0 0.00 0.00 0.00 56 1011.5
20260904014818 88 109 4.0 14.0 0.00 0.00 0.00 56 1011.5
20260904014422 89 98 5.0 16.0 0.00 0.00 0.00 55 1011.5
20260904013318 89 137 6.0 16.0 0.00 0.00 0.00 55 1011.5
20260904012818 89 90 6.0 14.0 0.00 0.00 0.00 54 1011.3
20260904012317 90 84 6.0 16.0 0.00 0.00 0.00 53 1011.3
20260904011816 91 37 6.0 16.0 0.00 0.00 0.00 52 1011.2
20260904011316 91 98 6.0 16.0 0.00 0.00 0.00 51 1011.1
20260904010816 92 110 7.0 20.0 0.00 0.00 0.00 50 1011.0
20260904010316 93 160 8.0 20.0 0.00 0.00 0.00 49 1010.9
20260904005816 93 121 7.0 19.0 0.00 0.00 0.00 47 1010.8
20260904005316 94 92 7.0 19.0 0.00 0.00 0.00 46 1010.7
20260904004816 95 155 7.0 19.0 0.00 0.00 0.00 44 1010.7
20260904004316 96 87 5.0 12.0 0.00 0.00 0.00 42 1010.5
20260904003815 98 107 4.0 12.0 0.00 0.00 0.00 39 1010.4
20260904003315 98 122 3.0 7.0 0.00 0.00 0.00 37 1010.3
20260904002814 99 103 2.0 7.0 0.00 0.00 0.00 37 1010.3
20260904002314 100 99 1.0 7.0 0.00 0.00 0.00 36 1010.2
20260904001815 100 116 2.0 8.0 0.00 0.00 0.00 36 1010.2
20260904001318 100 52 3.0 8.0 0.00 0.00 0.00 35 1010.2
20260904001314 100 120 3.0 8.0 0.00 0.00 0.00 36 1010.2
20260904000314 101 136 3.0 8.0 0.00 0.00 0.00 35 1010.2
20260903235816 101 122 2.0 8.0 0.00 0.00 0.00 34 1010.2
20260903235812 101 111 2.0 8.0 0.00 0.00 0.00 34 1010.1
20260903234812 101 103 3.0 8.0 0.00 0.00 0.00 34 1010.2
20260903234312 101 88 3.0 8.0 0.00 0.00 0.00 34 1010.1
20260903233816 101 115 4.0 10.0 0.00 0.00 0.00 34 1010.1
20260903233812 101 102 3.0 10.0 0.00 0.00 0.00 34 1010.1
20260903232812 102 117 4.0 9.0 0.00 0.00 0.00 35 1010.1
20260903232313 102 38 3.0 9.0 0.00 0.00 0.00 35 1010.0
20260903231812 102 65 3.0 9.0 0.00 0.00 0.00 35 1010.0
20260903231310 102 123 3.0 9.0 0.00 0.00 0.00 35 1010.0
20260903230810 102 109 4.0 9.0 0.00 0.00 0.00 35 1010.0
20260903230314 103 166 3.0 9.0 0.00 0.00 0.00 34 1010.1
20260903230310 103 94 4.0 9.0 0.00 0.00 0.00 34 1010.1
20260903225310 103 134 3.0 9.0 0.00 0.00 0.00 34 1010.0
20260903224810 103 128 3.0 8.0 0.00 0.00 0.00 34 1010.0
20260903224310 103 213 3.0 7.0 0.00 0.00 0.00 34 1010.0
20260903223808 103 136 3.0 8.0 0.00 0.00 0.00 34 1010.0
20260903223307 104 130 3.0 8.0 0.00 0.00 0.00 34 1010.0
20260903222808 104 153 3.0 8.0 0.00 0.00 0.00 34 1010.1
20260903222307 104 71 3.0 8.0 0.00 0.00 0.00 34 1010.1
20260903221806 103 109 4.0 13.0 0.00 0.00 0.00 35 1010.1
20260903221306 103 111 4.0 13.0 0.00 0.00 0.00 34 1010.1
20260903220806 103 78 2.0 7.0 0.00 0.00 0.00 35 1010.2
20260903220302 103 120 1.0 7.0 0.00 0.00 0.00 35 1010.2
20260903215800 103 30 3.0 10.0 0.00 0.00 0.00 34 1010.2
20260903215300 103 122 4.0 10.0 0.00 0.00 0.00 35 1010.3
20260903214758 103 98 4.0 11.0 0.00 0.00 0.00 35 1010.3
20260903214258 103 90 3.0 11.0 0.00 0.00 0.00 36 1010.3
20260903213758 103 56 3.0 9.0 0.00 0.00 0.00 34 1010.4
20260903213258 104 70 3.0 8.0 0.00 0.00 0.00 34 1010.5
20260903212758 103 128 2.0 7.0 0.00 0.00 0.00 35 1010.5
20260903212259 103 126 1.0 7.0 0.00 0.00 0.00 35 1010.5
20260903211756 103 157 2.0 7.0 0.00 0.00 0.00 36 1010.7
20260903211254 103 138 3.0 8.0 0.00 0.00 0.00 34 1010.8
20260903210754 102 24 3.0 8.0 0.00 0.00 0.00 36 1010.9
20260903210255 101 148 3.0 10.0 0.00 0.00 0.00 37 1010.9
20260903205754 101 151 3.0 10.0 0.00 0.00 0.00 36 1010.9
20260903205252 101 150 4.0 10.0 0.00 0.00 0.00 38 1011.0
20260903204752 101 175 3.0 10.0 0.00 0.00 0.00 37 1011.0
20260903204252 101 192 3.0 11.0 0.00 0.00 0.00 39 1011.1
20260903203756 101 165 3.0 8.0 0.00 0.00 0.00 39 1011.2
20260903203752 101 294 3.0 11.0 0.00 0.00 0.00 37 1011.1
20260903202752 100 171 4.0 8.0 0.00 0.00 0.00 40 1011.3
20260903202252 100 126 4.0 11.0 0.00 0.00 0.00 40 1011.4
20260903201753 100 151 4.0 11.0 0.00 0.00 0.00 39 1011.4
20260903201252 100 163 3.0 9.0 0.00 0.00 0.00 41 1011.4
20260903200752 100 188 3.0 9.0 0.00 0.00 0.00 40 1011.5
20260903200252 101 99 3.0 9.0 0.00 0.00 0.00 39 1011.6
20260903195751 101 112 3.0 9.0 0.00 0.00 0.00 39 1011.6
20260903195250 100 117 3.0 8.0 0.00 0.00 0.00 41 1011.6
20260903194750 100 124 2.0 7.0 0.00 0.00 0.00 41 1011.8
20260903194250 100 142 2.0 7.0 0.00 0.00 0.00 43 1012.0
20260903193750 100 138 3.0 7.0 0.00 0.00 0.00 43 1012.0
20260903193251 100 180 3.0 7.0 0.00 0.00 0.00 42 1012.1
20260903192749 99 109 3.0 7.0 0.00 0.00 0.00 42 1012.2
20260903192248 99 105 3.0 13.0 0.00 0.00 0.00 43 1012.3
20260903191748 98 136 3.0 13.0 0.00 0.00 0.00 43 1012.4
20260903191249 98 159 3.0 9.0 0.00 0.00 0.00 46 1012.4
20260903190748 97 159 3.0 9.0 0.00 0.00 0.00 47 1012.5
20260903190252 98 178 3.0 9.0 0.00 0.00 0.00 46 1012.8
20260903190248 98 151 2.0 9.0 0.00 0.00 0.00 45 1012.6
20260903185252 96 179 2.0 7.0 0.00 0.00 0.00 47 1013.0
20260903185248 97 144 3.0 9.0 0.00 0.00 0.00 46 1012.9
20260903184853 96 100 4.0 12.0 0.00 0.00 0.00 48 1013.0
20260903183751 96 129 1.0 8.0 0.00 0.00 0.00 50 1013.2
20260903183746 96 182 4.0 12.0 0.00 0.00 0.00 47 1013.1
20260903182744 95 208 2.0 7.0 0.00 0.00 0.00 51 1013.3
20260903182245 96 161 4.0 12.0 0.00 0.00 0.00 50 1013.5
20260903181742 96 196 3.0 12.0 0.00 0.00 0.00 48 1013.5
20260903181240 96 180 2.0 6.0 0.00 0.00 0.00 50 1013.5
20260903180740 95 128 3.0 7.0 0.00 0.00 0.00 51 1013.6
20260903180241 95 142 3.0 7.0 0.00 0.00 0.00 50 1013.7
20260903175739 94 130 3.0 7.0 0.00 0.00 0.00 54 1013.7
20260903175238 94 186 3.0 7.0 0.00 0.00 0.00 53 1013.8
20260903174739 94 115 3.0 8.0 0.00 0.00 0.00 52 1013.9
20260903174241 94 118 2.0 8.0 0.00 0.00 0.00 53 1014.0
20260903174237 93 128 2.0 7.0 0.00 0.00 0.00 57 1014.1
20260903173237 93 61 2.0 8.0 0.00 0.00 0.00 54 1014.0
20260903173233 92 151 3.0 8.0 0.00 0.00 0.00 57 1014.2
20260903172836 92 146 3.0 8.0 0.00 0.00 0.00 59 1014.2
20260903172337 92 161 3.0 8.0 0.00 0.00 0.00 59 1014.3
20260903171836 92 84 2.0 8.0 0.00 0.00 0.00 59 1014.3
20260903170735 91 117 2.0 7.0 0.00 0.00 0.00 59 1014.5
20260903170731 91 216 2.0 7.0 0.00 0.00 0.00 61 1014.4
20260903170334 91 90 2.0 7.0 0.00 0.00 0.00 62 1014.4
20260903165231 91 167 2.0 7.0 0.00 0.00 0.00 61 1014.5
20260903164730 91 103 2.0 7.0 0.00 0.00 0.00 61 1014.5
20260903164231 90 102 2.0 7.0 0.00 0.00 0.00 64 1014.6
20260903163735 89 130 2.0 8.0 0.00 0.00 0.00 66 1014.7
20260903163730 90 115 2.0 8.0 0.00 0.00 0.00 65 1014.6
20260903162731 89 120 2.0 8.0 0.00 0.00 0.00 66 1014.8
20260903162230 89 138 2.0 8.0 0.00 0.00 0.00 67 1014.7
20260903161730 88 179 3.0 10.0 0.00 0.00 0.00 67 1014.7
20260903161231 87 172 4.0 10.0 0.00 0.00 0.00 68 1014.7
20260903160734 87 207 2.0 8.0 0.00 0.00 0.00 70 1014.7
20260903160730 87 134 2.0 8.0 0.00 0.00 0.00 70 1014.6
20260903155730 87 172 3.0 8.0 0.00 0.00 0.00 70 1014.7
20260903155230 86 134 4.0 7.0 0.00 0.00 0.00 71 1014.7
20260903154731 85 130 4.0 8.0 0.00 0.00 0.00 72 1014.7
20260903154230 85 166 3.0 8.0 0.00 0.00 0.00 73 1014.7
20260903153730 85 132 3.0 8.0 0.00 0.00 0.00 73 1014.6
20260903153231 84 217 3.0 8.0 0.00 0.00 0.00 74 1014.7
20260903152730 85 203 3.0 8.0 0.00 0.00 0.00 75 1014.7
20260903152230 84 159 3.0 8.0 0.00 0.00 0.00 75 1014.8